Location: Allison's Woods
(35.8809°N, 80.8140°W)
Time: 23:58:50
(UTC-04:00)

Iridium 39 - Visible Passes

Search period start: 26 June 2016 00:00
Search period end: 06 July 2016 00:00
Orbit: 764 x 772 km, 86.4° (Epoch: 26 June)

Date Brightness Start Highest point End Pass type
(mag) Time Alt. Az. Time Alt. Az. Time Alt. Az.
27 Jun 8.4 05:11:38 10° NNE 05:15:50 25° E 05:20:01 10° SE visible
28 Jun 9.0 04:37:13 10° NE 04:39:10 12° ENE 04:41:08 10° E visible
30 Jun 8.0 05:02:50 10° NNE 05:07:21 30° E 05:11:50 10° SE visible
01 Jul 8.8 04:27:52 10° NE 04:30:44 15° ENE 04:33:35 10° ESE visible
02 Jul 6.3 05:30:06 10° N 05:35:16 75° E 05:40:25 10° S visible
03 Jul 7.6 04:54:06 10° NNE 04:58:51 36° E 05:03:34 10° SSE visible
04 Jul 8.6 04:18:48 10° NE 04:22:17 18° ENE 04:25:45 10° ESE visible
05 Jul 6.0 05:21:32 10° N 05:26:44 89° W 05:31:53 10° S visible
